SCP
0 0 0 0 0 0 0 0 0 0 0 0 0 0 0 0 0 0 0 0 0 0 0 0 0 0 0 0 0 0 0 0 0 0 0 0 0 0 0 0 0 0 0
0 0 0 0 0 0 0 0 0 0 0 0 0 0 0 0 0 0 0 0 0 0 0 0 0 0 0 0 0 0 0 0 0 0 0 0 0 0 0 0 0 0 0
0 0 0 0 0 0 0 0 0 0 0 0 0 0 0 0 0 0 0 0 0 0 0 0 0 0 0 0 0 0 0 0 0 0 0 0 0 0 0 0 0 0 0
0 0 0 0 0 0 0 0 0 0 0 0 0 0 0 0 0 0 0 0 0 0 0 0 0 0 0 0 0 0 0 0 0 0 0 0 0 0 0 0 0 0 0
0 0 0 0 0 0 0 0 0 0 0 0 0 0 0 0 0 0 0 0 0 0 0 0 0 0 0 0 0 0 0 0 0 0 0 0 0 0 0 0 0 0 0
0 0 0 0 0 0 0 0 0 0 0 0 0 0 0 0 0 0 0 0 0 0 0 0 0 0 0 0 0 0 0 0 0 0 0 0 0 0 0 0 0 0 0
0 0 0 0 0 0 0 0 0 0 0 0 0 0 0 0 0 0 0 0 0 0 0 0 0 0 0 0 0 0 0 0 0 0 0 0 0 0 0 0 0 0 0
0 0 0 0 0 0 0 0 0 0 0 0 0 0 0 0 0 0 0 0 0 0 0 0 0 0 0 0 0 0 0 0 0 0 0 0 0 0 0 0 0 0 0
0 0 0 0 0 0 0 0 0 0 0 0 0 0 0 0 0 0 0 0 0 0 0 0 0 0 0 0 0 0 0 0 0 0 0 0 0 0 0 0 0 0 0
0 0 0 0 0 0 0 0 0 0 0 0 0 0 0 0 0 0 0 0 0 0 0 0 0 0 0 0 0 0 0 0 0 0 0 0 0 0 0 0 0 0 0
0 0 0 0 0 0 0 0 0 0 0 0 0 0 0 0 0 0 0 0 0 0 0 0 0 0 0 0 0 0 0 0 0 0 0 0 0 0 0 0 0 0 0
0 0 -0 -0 -0 0 0 0 0 0 0 0 0 0 0 0 0 0 0 0 0 0 0 0 0 0 0 0 0 0 0 0 0 0 0 0 0 0 0 0 0 0 0
0 -0 -0 -0 0 0 0 0 0 0 0 0 0 0 0 0 0 0 0 0 0 0 0 0 0 0 0 0 0 0 0 0 0 0 0 0 0 0 0 0 0 0 0
0 0 0 0 0 0 0 0 0 0 0 0 0 0 0 0 0 0 0 0 0 0 0 0 0 0 0 0 0 0 0 0 0 0 0 0 0 0 0 0 0 0 0
0 0 0 0 0 0 0 0 0 0 0 0 0 0 0 0 0 0 0 0 0 0 0 0 0 0 0 0 0 0 0 0 0 0 0 0 0 0 0 0 0 0 0
0 0 0 0 0 0 0 0 0 0 0 0 0 0 0 0 0 0 0 0 0 0 0 0 0 0 0 0 0 0 0 0 0 0 0 0 0 0 0 0 0 0 0
0 0 0 0 0 0 0 0 0 0 0 0 0 0 0 0 0 0 0 0 0 0 0 0 0 0 0 0 0 0 0 0 0 0 0 0 0 0 0 0 0 0 0
0 0 0 0 0 0 0 0 0 0 0 0 0 0 0 0 0 0 0 0 0 0 0 0 0 0 0 0 0 0 0 0 0 0 0 0 0 0 0 0 0 0 0
0 0 0 0 0 0 0 0 0 0 0 0 0 0 0 0 0 0 0 0 0 0 0 0 0 0 0 0 0 0 0 0 0 0 0 0 0 0 0 0 0 0 0
0 0 0 0 0 0 0 0 0 0 0 0 0 0 0 0 0 0 0 0 0 0 0 0 0 0 0 0 0 0 0 0 0 0 0 0 0 0 0 0 0 0 0
0 0 0 0 0 0 0 0 0 0 0 0 0 0 0 0 0 0 0 0 0 0 0 0 0 0 0 0 0 0 0 0 0 0 0 0 0 0 0 0 0 0 0
0 0 0 0 0 0 0 0 0 0 0 0 0 0 0 0 0 0 0 0 0 0 0 0 0 0 0 0 0 0 0 0 0 0 0 0 0 0 0 0 0 0 0
0 0 0 0 0 0 0 0 0 0 0 0 0 0 0 0 0 0 0 0 0 0 0 0 0 0 0 0 0 0 0 0 0 0 0 0 0 0 0 0 0 0 0
0 0 0 0 0 0 0 0 0 0 0 0 0 0 0 0 0 0 0 0 0 0 0 0 0 0 0 0 0 0 0 0 0 0 0 0 0 0 0 0 0 0 0
0 0 0 0 0 0 0 0 0 0 0 0 0 0 0 0 0 0 0 0 0 0 0 0 0 0 0 0 0 0 0 0 0 0 0 0 0 0 0 0 0 0 0
0 0 0 0 0 0 0 0 0 0 0 0 0 0 0 0 0 0 0 0 0 0 0 0 0 0 0 0 0 0 0 0 0 0 0 0 0 0 0 0 0 0 0
Wind_Speed_500mb
55 56 55 63 64 66 64 65 61 55 54 52 49 50 52 53 58 64 65 65 59 54 53 54 50 47 46 48 50 48 48 53 52 51 52 49 47 45 41 38 36 34 35
65 60 51 47 55 68 71 68 63 57 54 51 49 50 54 58 62 63 62 58 53 48 50 50 51 50 49 46 48 51 52 51 55 54 50 45 42 43 27 18 23 25 9
72 76 76 68 63 60 64 62 59 56 53 50 50 53 56 61 64 59 57 54 51 46 44 46 45 45 46 48 50 47 47 53 57 49 46 16 18 20 20 23 12 13 14
80 76 69 67 64 61 63 63 60 56 52 49 49 52 56 55 54 55 52 47 42 39 40 42 42 43 48 51 45 42 43 48 51 51 51 44 41 17 10 18 10 12 14
61 57 60 63 57 54 67 67 61 55 51 46 48 51 52 50 48 47 44 41 37 33 34 33 38 39 44 46 51 48 46 45 48 47 40 37 35 42 32 22 31 20 15
40 40 44 50 53 50 52 58 55 51 47 45 47 47 47 42 41 41 39 34 31 32 35 36 37 43 46 43 41 46 41 33 35 35 37 38 39 37 37 30 32 27 22
39 38 40 35 37 40 43 51 50 46 44 44 43 43 40 39 40 37 35 30 32 36 38 38 45 38 36 37 31 35 42 40 41 40 41 40 44 41 38 35 34 36 34
39 34 29 25 26 32 38 43 42 40 39 39 39 38 37 37 36 36 34 33 37 36 36 41 38 39 41 42 44 46 47 45 43 38 36 35 37 40 39 38 36 32 32
35 29 25 22 21 28 33 35 36 36 38 38 37 36 36 37 36 36 36 38 41 42 43 44 47 49 51 50 45 42 38 35 35 35 36 38 35 35 35 33 31 31 28
31 30 27 24 22 27 30 35 37 39 41 40 39 38 38 38 38 38 39 41 44 45 46 47 47 47 44 40 35 32 30 32 33 34 34 34 33 31 30 27 25 26 24
27 29 30 28 28 32 38 40 44 45 44 43 43 43 43 42 42 44 44 45 44 44 45 44 43 40 38 35 34 33 33 34 34 35 35 34 32 30 28 25 24 24 24
20 28 39 41 38 39 44 49 49 48 47 48 51 53 51 49 49 49 49 47 45 44 44 42 41 39 38 37 38 38 37 38 38 38 38 37 35 33 31 29 26 23 22
37 63 68 55 52 48 47 51 53 58 57 59 60 62 62 58 55 54 53 50 48 47 47 46 44 43 42 43 43 42 41 40 40 39 39 38 38 37 35 31 25 23 21
72 73 70 73 66 68 72 71 69 69 69 71 72 72 70 67 61 59 58 55 54 53 51 50 49 49 47 46 45 44 43 42 42 42 44 44 44 41 36 31 28 24 20
67 73 74 69 69 72 73 74 78 81 81 82 84 84 79 74 69 65 64 62 60 59 57 55 53 51 49 48 47 46 46 46 47 49 50 49 47 42 39 35 31 24 18
66 67 67 67 71 72 75 78 80 79 80 85 89 89 87 82 78 72 70 69 66 64 63 60 57 55 54 51 51 51 50 51 51 50 51 49 46 42 38 32 28 24 19
64 69 71 70 70 71 73 75 73 72 75 78 82 84 87 90 87 80 77 75 73 69 67 63 61 59 55 56 55 55 54 52 52 52 52 50 45 42 36 31 27 21 17
48 49 52 55 56 59 63 67 68 69 70 72 75 79 81 87 91 87 84 80 75 71 68 64 62 59 56 58 57 56 56 55 53 53 50 47 44 39 34 28 25 20 19
30 32 33 36 48 56 57 61 63 61 64 69 73 77 79 79 88 91 88 82 75 70 67 63 60 58 55 59 57 55 57 58 56 54 51 47 42 35 32 29 24 23 22
44 45 53 59 58 57 60 62 64 65 65 62 61 66 71 72 78 86 88 81 74 71 66 65 64 60 56 60 55 56 57 59 59 54 48 46 42 38 31 27 24 24 20
46 45 51 57 58 60 62 63 60 58 60 61 59 58 61 63 66 71 79 80 74 73 69 68 65 63 61 59 56 57 58 56 52 50 49 44 42 38 30 26 25 21 22
54 54 57 56 52 54 57 60 62 62 61 62 63 60 56 54 60 61 71 76 75 72 71 70 67 67 64 60 54 43 47 55 55 51 47 41 37 32 27 25 22 19 20
60 58 62 67 65 62 62 67 66 65 62 60 61 60 59 57 55 55 65 73 76 75 75 74 70 69 62 56 48 48 47 51 50 47 40 36 35 31 23 23 20 19 21
64 66 71 75 77 68 64 65 67 66 64 63 59 57 57 60 59 61 66 74 81 80 77 78 77 74 69 64 57 51 49 47 45 43 39 38 31 24 25 22 22 22 22
69 71 74 78 79 74 69 64 63 64 64 60 58 56 55 57 58 62 66 73 77 75 74 76 74 72 74 73 68 58 48 39 32 31 31 32 30 27 24 23 24 25 26
76 77 75 75 75 72 68 62 58 57 57 58 54 51 53 55 56 59 62 63 64 59 63 64 64 63 64 66 65 56 47 43 46 38 39 35 28 24 26 27 27 27 28
Wind_Direction_500mb
266 262 258 248 250 252 250 249 249 248 253 259 268 279 280 277 278 281 283 282 277 269 261 257 256 263 261 271 272 273 271 275 275 276 278 278 276 276 280 287 283 280 277
261 256 255 258 261 252 252 249 245 245 249 259 273 276 279 279 281 285 285 283 279 270 257 251 252 257 259 262 265 269 273 272 274 269 274 274 277 286 281 268 282 283 244
265 259 255 262 260 254 253 247 243 242 248 258 270 275 275 278 283 283 282 281 278 272 259 253 256 254 258 265 267 269 273 273 276 270 265 238 227 245 246 283 267 196 238
264 264 264 258 258 259 254 247 245 246 250 258 269 276 280 282 284 285 283 279 271 263 257 256 253 258 260 259 261 267 272 272 272 270 267 265 268 242 225 211 175 216 230
277 275 272 269 269 261 260 247 244 245 251 263 272 278 280 283 284 283 281 276 271 263 256 255 254 257 260 264 265 262 263 258 263 260 253 243 255 252 251 200 165 199 218
293 288 281 270 261 255 250 240 238 243 254 266 273 276 280 281 284 283 279 273 269 264 262 264 263 262 263 256 260 261 264 259 267 263 256 253 241 239 217 209 194 208 211
303 300 310 278 254 245 241 236 237 245 256 265 271 276 277 281 283 283 278 269 261 257 260 264 272 263 270 257 268 263 268 265 267 261 256 253 248 251 238 219 217 201 210
314 304 306 293 260 244 238 237 243 251 258 268 272 274 277 278 279 280 278 265 265 265 263 266 261 271 268 264 265 265 268 262 260 259 248 241 242 237 236 230 225 204 205
345 339 314 297 264 247 245 249 254 259 267 269 269 269 267 269 270 270 268 264 263 263 262 263 264 265 266 267 264 260 255 252 250 247 243 242 242 238 236 232 224 214 196
351 353 342 319 287 267 259 257 261 267 272 270 268 266 266 268 268 267 265 262 261 262 261 262 260 260 259 254 248 244 242 240 240 238 235 235 233 232 229 223 212 200 196
358 352 342 323 298 277 268 268 272 279 278 274 270 266 265 266 267 266 266 264 262 262 260 258 256 252 249 247 245 244 243 243 241 240 237 234 230 226 220 210 198 189 189
11 8 344 326 308 296 280 278 280 285 285 277 268 264 263 263 263 264 264 262 260 256 253 250 247 245 246 248 249 248 246 242 239 236 233 229 223 216 211 206 201 198 195
326 318 311 310 303 299 298 293 291 287 280 276 273 268 264 264 264 263 261 258 255 251 247 245 245 247 249 248 246 244 242 239 235 233 228 222 219 214 211 210 209 209 206
299 299 301 307 305 301 300 298 296 293 283 278 275 272 268 265 263 261 260 258 255 251 249 247 247 247 246 245 245 243 239 236 232 229 226 221 216 213 213 215 219 222 224
288 292 298 300 303 300 298 296 294 293 288 279 275 275 272 265 261 257 256 253 251 250 249 249 249 248 246 245 242 239 236 235 232 228 222 218 218 218 218 218 221 226 235
289 295 298 297 300 300 298 297 297 296 294 285 280 274 269 263 260 258 255 253 252 251 251 251 249 247 245 242 238 235 235 233 230 226 222 220 221 221 222 226 231 235 243
296 299 301 304 306 305 303 300 300 296 293 291 287 278 270 263 260 257 254 253 251 250 249 247 245 242 239 239 238 236 233 231 228 225 225 224 223 223 224 227 234 239 254
304 308 307 305 308 310 309 307 306 300 294 289 285 281 273 264 258 255 253 250 247 246 245 244 241 238 237 239 238 236 233 232 228 227 227 229 229 229 229 232 242 255 267
321 316 313 315 318 315 313 312 313 314 306 295 289 286 280 269 259 254 251 249 247 246 245 242 241 240 237 240 240 237 230 227 229 229 228 231 232 231 232 230 237 246 260
317 306 302 306 310 310 310 309 310 309 310 308 300 291 285 277 266 258 253 251 248 247 243 242 241 240 237 239 239 234 223 224 226 225 229 230 229 230 232 229 235 246 256
310 302 302 304 306 305 305 305 307 309 306 304 300 295 289 283 274 262 252 247 244 242 239 237 237 237 234 235 237 236 224 227 230 229 226 226 228 232 232 233 239 248 257
311 310 308 307 309 310 306 302 301 304 302 301 298 294 290 283 274 262 251 244 240 239 238 235 232 231 230 228 232 232 230 230 229 229 226 224 232 236 236 237 246 251 260
308 310 308 307 308 306 302 300 300 298 299 296 292 287 284 273 262 258 250 242 239 235 234 231 228 225 224 220 224 229 232 231 232 229 226 223 230 238 241 248 256 264 270
308 310 310 310 308 307 303 299 297 295 294 295 293 286 277 269 262 251 240 235 237 236 232 231 225 222 220 218 217 225 232 232 230 220 220 223 228 238 246 264 269 273 282
308 308 308 307 307 307 303 300 296 294 293 289 288 286 276 266 255 247 242 236 237 239 239 236 234 228 222 222 223 228 224 231 231 221 223 229 229 235 244 259 272 278 283
308 307 307 306 305 305 305 303 299 295 292 290 287 282 276 268 258 247 240 238 240 239 241 240 242 237 235 228 226 222 222 222 231 233 224 224 228 241 255 259 267 272 278
Wind_Speed_850mb
55 56 55 63 64 66 64 65 61 55 54 52 49 50 52 53 58 64 65 65 59 54 53 54 50 47 46 48 50 48 48 53 52 51 52 49 47 45 41 38 36 34 35
65 60 51 47 55 68 71 68 63 57 54 51 49 50 54 58 62 63 62 58 53 48 50 50 51 50 49 46 48 51 52 51 55 54 50 45 42 43 27 18 23 25 9
72 76 76 68 63 60 64 62 59 56 53 50 50 53 56 61 64 59 57 54 51 46 44 46 45 45 46 48 50 47 47 53 57 49 46 16 18 20 20 23 12 13 14
80 76 69 67 64 61 63 63 60 56 52 49 49 52 56 55 54 55 52 47 42 39 40 42 42 43 48 51 45 42 43 48 51 51 51 44 41 17 10 18 10 12 14
61 57 60 63 57 54 67 67 61 55 51 46 48 51 52 50 48 47 44 41 37 33 34 33 38 39 44 46 51 48 46 45 48 47 40 37 35 42 32 22 31 20 15
40 40 44 50 53 50 52 58 55 51 47 45 47 47 47 42 41 41 39 34 31 32 35 36 37 43 46 43 41 46 41 33 35 35 37 38 39 37 37 30 32 27 22
39 38 40 35 37 40 43 51 50 46 44 44 43 43 40 39 40 37 35 30 32 36 38 38 45 38 36 37 31 35 42 40 41 40 41 40 44 41 38 35 34 36 34
39 34 29 25 26 32 38 43 42 40 39 39 39 38 37 37 36 36 34 33 37 36 36 41 38 39 41 42 44 46 47 45 43 38 36 35 37 40 39 38 36 32 32
35 29 25 22 21 28 33 35 36 36 38 38 37 36 36 37 36 36 36 38 41 42 43 44 47 49 51 50 45 42 38 35 35 35 36 38 35 35 35 33 31 31 28
31 30 27 24 22 27 30 35 37 39 41 40 39 38 38 38 38 38 39 41 44 45 46 47 47 47 44 40 35 32 30 32 33 34 34 34 33 31 30 27 25 26 24
27 29 30 28 28 32 38 40 44 45 44 43 43 43 43 42 42 44 44 45 44 44 45 44 43 40 38 35 34 33 33 34 34 35 35 34 32 30 28 25 24 24 24
20 28 39 41 38 39 44 49 49 48 47 48 51 53 51 49 49 49 49 47 45 44 44 42 41 39 38 37 38 38 37 38 38 38 38 37 35 33 31 29 26 23 22
37 63 68 55 52 48 47 51 53 58 57 59 60 62 62 58 55 54 53 50 48 47 47 46 44 43 42 43 43 42 41 40 40 39 39 38 38 37 35 31 25 23 21
72 73 70 73 66 68 72 71 69 69 69 71 72 72 70 67 61 59 58 55 54 53 51 50 49 49 47 46 45 44 43 42 42 42 44 44 44 41 36 31 28 24 20
67 73 74 69 69 72 73 74 78 81 81 82 84 84 79 74 69 65 64 62 60 59 57 55 53 51 49 48 47 46 46 46 47 49 50 49 47 42 39 35 31 24 18
66 67 67 67 71 72 75 78 80 79 80 85 89 89 87 82 78 72 70 69 66 64 63 60 57 55 54 51 51 51 50 51 51 50 51 49 46 42 38 32 28 24 19
64 69 71 70 70 71 73 75 73 72 75 78 82 84 87 90 87 80 77 75 73 69 67 63 61 59 55 56 55 55 54 52 52 52 52 50 45 42 36 31 27 21 17
48 49 52 55 56 59 63 67 68 69 70 72 75 79 81 87 91 87 84 80 75 71 68 64 62 59 56 58 57 56 56 55 53 53 50 47 44 39 34 28 25 20 19
30 32 33 36 48 56 57 61 63 61 64 69 73 77 79 79 88 91 88 82 75 70 67 63 60 58 55 59 57 55 57 58 56 54 51 47 42 35 32 29 24 23 22
44 45 53 59 58 57 60 62 64 65 65 62 61 66 71 72 78 86 88 81 74 71 66 65 64 60 56 60 55 56 57 59 59 54 48 46 42 38 31 27 24 24 20
46 45 51 57 58 60 62 63 60 58 60 61 59 58 61 63 66 71 79 80 74 73 69 68 65 63 61 59 56 57 58 56 52 50 49 44 42 38 30 26 25 21 22
54 54 57 56 52 54 57 60 62 62 61 62 63 60 56 54 60 61 71 76 75 72 71 70 67 67 64 60 54 43 47 55 55 51 47 41 37 32 27 25 22 19 20
60 58 62 67 65 62 62 67 66 65 62 60 61 60 59 57 55 55 65 73 76 75 75 74 70 69 62 56 48 48 47 51 50 47 40 36 35 31 23 23 20 19 21
64 66 71 75 77 68 64 65 67 66 64 63 59 57 57 60 59 61 66 74 81 80 77 78 77 74 69 64 57 51 49 47 45 43 39 38 31 24 25 22 22 22 22
69 71 74 78 79 74 69 64 63 64 64 60 58 56 55 57 58 62 66 73 77 75 74 76 74 72 74 73 68 58 48 39 32 31 31 32 30 27 24 23 24 25 26
76 77 75 75 75 72 68 62 58 57 57 58 54 51 53 55 56 59 62 63 64 59 63 64 64 63 64 66 65 56 47 43 46 38 39 35 28 24 26 27 27 27 28
Wind_Direction_850mb
266 262 258 248 250 252 250 249 249 248 253 259 268 279 280 277 278 281 283 282 277 269 261 257 256 263 261 271 272 273 271 275 275 276 278 278 276 276 280 287 283 280 277
261 256 255 258 261 252 252 249 245 245 249 259 273 276 279 279 281 285 285 283 279 270 257 251 252 257 259 262 265 269 273 272 274 269 274 274 277 286 281 268 282 283 244
265 259 255 262 260 254 253 247 243 242 248 258 270 275 275 278 283 283 282 281 278 272 259 253 256 254 258 265 267 269 273 273 276 270 265 238 227 245 246 283 267 196 238
264 264 264 258 258 259 254 247 245 246 250 258 269 276 280 282 284 285 283 279 271 263 257 256 253 258 260 259 261 267 272 272 272 270 267 265 268 242 225 211 175 216 230
277 275 272 269 269 261 260 247 244 245 251 263 272 278 280 283 284 283 281 276 271 263 256 255 254 257 260 264 265 262 263 258 263 260 253 243 255 252 251 200 165 199 218
293 288 281 270 261 255 250 240 238 243 254 266 273 276 280 281 284 283 279 273 269 264 262 264 263 262 263 256 260 261 264 259 267 263 256 253 241 239 217 209 194 208 211
303 300 310 278 254 245 241 236 237 245 256 265 271 276 277 281 283 283 278 269 261 257 260 264 272 263 270 257 268 263 268 265 267 261 256 253 248 251 238 219 217 201 210
314 304 306 293 260 244 238 237 243 251 258 268 272 274 277 278 279 280 278 265 265 265 263 266 261 271 268 264 265 265 268 262 260 259 248 241 242 237 236 230 225 204 205
345 339 314 297 264 247 245 249 254 259 267 269 269 269 267 269 270 270 268 264 263 263 262 263 264 265 266 267 264 260 255 252 250 247 243 242 242 238 236 232 224 214 196
351 353 342 319 287 267 259 257 261 267 272 270 268 266 266 268 268 267 265 262 261 262 261 262 260 260 259 254 248 244 242 240 240 238 235 235 233 232 229 223 212 200 196
358 352 342 323 298 277 268 268 272 279 278 274 270 266 265 266 267 266 266 264 262 262 260 258 256 252 249 247 245 244 243 243 241 240 237 234 230 226 220 210 198 189 189
11 8 344 326 308 296 280 278 280 285 285 277 268 264 263 263 263 264 264 262 260 256 253 250 247 245 246 248 249 248 246 242 239 236 233 229 223 216 211 206 201 198 195
326 318 311 310 303 299 298 293 291 287 280 276 273 268 264 264 264 263 261 258 255 251 247 245 245 247 249 248 246 244 242 239 235 233 228 222 219 214 211 210 209 209 206
299 299 301 307 305 301 300 298 296 293 283 278 275 272 268 265 263 261 260 258 255 251 249 247 247 247 246 245 245 243 239 236 232 229 226 221 216 213 213 215 219 222 224
288 292 298 300 303 300 298 296 294 293 288 279 275 275 272 265 261 257 256 253 251 250 249 249 249 248 246 245 242 239 236 235 232 228 222 218 218 218 218 218 221 226 235
289 295 298 297 300 300 298 297 297 296 294 285 280 274 269 263 260 258 255 253 252 251 251 251 249 247 245 242 238 235 235 233 230 226 222 220 221 221 222 226 231 235 243
296 299 301 304 306 305 303 300 300 296 293 291 287 278 270 263 260 257 254 253 251 250 249 247 245 242 239 239 238 236 233 231 228 225 225 224 223 223 224 227 234 239 254
304 308 307 305 308 310 309 307 306 300 294 289 285 281 273 264 258 255 253 250 247 246 245 244 241 238 237 239 238 236 233 232 228 227 227 229 229 229 229 232 242 255 267
321 316 313 315 318 315 313 312 313 314 306 295 289 286 280 269 259 254 251 249 247 246 245 242 241 240 237 240 240 237 230 227 229 229 228 231 232 231 232 230 237 246 260
317 306 302 306 310 310 310 309 310 309 310 308 300 291 285 277 266 258 253 251 248 247 243 242 241 240 237 239 239 234 223 224 226 225 229 230 229 230 232 229 235 246 256
310 302 302 304 306 305 305 305 307 309 306 304 300 295 289 283 274 262 252 247 244 242 239 237 237 237 234 235 237 236 224 227 230 229 226 226 228 232 232 233 239 248 257
311 310 308 307 309 310 306 302 301 304 302 301 298 294 290 283 274 262 251 244 240 239 238 235 232 231 230 228 232 232 230 230 229 229 226 224 232 236 236 237 246 251 260
308 310 308 307 308 306 302 300 300 298 299 296 292 287 284 273 262 258 250 242 239 235 234 231 228 225 224 220 224 229 232 231 232 229 226 223 230 238 241 248 256 264 270
308 310 310 310 308 307 303 299 297 295 294 295 293 286 277 269 262 251 240 235 237 236 232 231 225 222 220 218 217 225 232 232 230 220 220 223 228 238 246 264 269 273 282
308 308 308 307 307 307 303 300 296 294 293 289 288 286 276 266 255 247 242 236 237 239 239 236 234 228 222 222 223 228 224 231 231 221 223 229 229 235 244 259 272 278 283
308 307 307 306 305 305 305 303 299 295 292 290 287 282 276 268 258 247 240 238 240 239 241 240 242 237 235 228 226 222 222 222 231 233 224 224 228 241 255 259 267 272 278